Change the Weather History Date:

Tuesday, December 3, 2013

  Actual Average Record
Temperature  
Mean Temperature 46 °F -  
Max Temperature 56 °F 48 °F 76 °F (1970)
Min Temperature 37 °F 30 °F 12 °F (1976)
Degree Days  
Heating Degree Days 18    
Moisture  
Dew Point 46 °F    
Average Humidity 100    
Maximum Humidity 100    
Minimum Humidity 94    
Precipitation  
Precipitation 0.00 in - - ()
Sea Level Pressure  
Sea Level Pressure 29.70 in    
Wind  
Wind Speed 4 mph (SE)    
Max Wind Speed 15 mph    
Max Gust Speed -    
Visibility 2 miles    
Events Fog    
Averages and records for this station are not official NWS values.
T = Trace of Precipitation, MM = Missing Value Source: NWS Daily Summary

Daily Weather History Graph

Daily Weather History Graph

Search for Another Location

Airport or City:

Trip Planner

Search our weather history database for the weather conditions in past years. The results will help you decide how hot, cold, wet, or windy it might be!

Date:

Astronomy

Dec. 03, 2013 Rise Set
Actual Time 7:00 AM CST 4:38 PM CST
Civil Twilight 6:30 AM CST 5:07 PM CST
Nautical Twilight 5:57 AM CST 5:40 PM CST
Astronomical Twilight 5:25 AM CST 6:12 PM CST
Moon 7:29 AM CST (12/3) 5:41 PM CST (12/3)
Length of Visible Light 10h 36m
Length of Day
9h 38m
New Moon, 1% of the Moon is Illuminated
Dec 3
New Moon
Dec 9
First Quarter
Dec 17
Full
Dec 25
Last Quarter
Jan 1
New

Hourly Weather History & Observations

Time (CST) Temp. Windchill Dew Point Humidity Pressure Visibility Wind Dir Wind Speed Gust Speed Precip Events Conditions
12:03 AM 42.8 °F - 42.8 °F 100% 29.70 in 2.5 mi Variable 1.2 mph - N/A   Clear
12:08 AM 39.2 °F - 39.2 °F 100% 29.70 in 4.0 mi Calm Calm - N/A   Clear
12:38 AM 37.4 °F - 37.4 °F 100% 29.70 in 1.2 mi Calm Calm - N/A   Clear
12:43 AM 39.2 °F - 39.2 °F 100% 29.70 in 0.5 mi NE 1.2 mph - N/A Fog Fog
12:48 AM 37.4 °F - 37.4 °F 100% 29.70 in 0.2 mi NNE 2.3 mph - N/A Fog Fog
12:58 AM 37.2 °F 34.7 °F 37.2 °F 100% 29.72 in 0.2 mi NE 3.5 mph - N/A Fog Fog
1:23 AM 37.4 °F - 37.4 °F 100% 29.70 in 0.5 mi East 2.3 mph - N/A Fog Fog
1:38 AM 37.4 °F - 37.4 °F 100% 29.70 in 0.8 mi East 2.3 mph - N/A   Clear
1:43 AM 37.4 °F - 37.4 °F 100% 29.70 in 1.0 mi Calm Calm - N/A   Clear
1:48 AM 37.4 °F - 37.4 °F 100% 29.70 in 1.8 mi East 1.2 mph - N/A   Clear
1:58 AM 37.2 °F - 37.2 °F 100% 29.70 in 2.5 mi Calm Calm - N/A   Clear
2:03 AM 37.4 °F - 37.4 °F 100% 29.70 in 1.2 mi Calm Calm - N/A   Partly Cloudy
2:08 AM 37.4 °F - 37.4 °F 100% 29.70 in 0.5 mi Calm Calm - N/A Fog Fog
2:28 AM 37.4 °F 33.8 °F 37.4 °F 100% 29.69 in 0.2 mi ESE 4.6 mph - N/A Fog Fog
2:33 AM 37.4 °F 32.8 °F 37.4 °F 100% 29.69 in 0.2 mi ESE 5.8 mph - N/A Fog Fog
2:57 AM 39.2 °F 37.0 °F 39.2 °F 100% 29.69 in 0.2 mi SE 3.5 mph - N/A Fog Fog
2:58 AM 38.8 °F 36.5 °F 38.8 °F 100% 29.70 in 0.2 mi SSE 3.5 mph - 0.00 in Fog Fog
3:21 AM 41.0 °F 39.0 °F 41.0 °F 100% 29.69 in 0.2 mi ESE 3.5 mph - N/A Fog Fog
3:58 AM 43.5 °F 40.9 °F 43.5 °F 100% 29.68 in 0.2 mi SE 4.6 mph - 0.00 in Fog Fog
4:03 AM 44.6 °F 42.2 °F 44.6 °F 100% 29.67 in 0.2 mi SE 4.6 mph - N/A Fog Fog
4:05 AM 44.6 °F 42.2 °F 44.6 °F 100% 29.67 in 0.2 mi SE 4.6 mph - N/A Fog Fog
4:15 AM 42.8 °F - 42.8 °F 100% 29.67 in 0.2 mi South 2.3 mph - N/A Fog Fog
4:58 AM 45.0 °F 43.5 °F 45.0 °F 100% 29.68 in 0.2 mi South 3.5 mph - 0.00 in Fog Fog
5:48 AM 46.4 °F 44.3 °F 46.4 °F 100% 29.67 in 0.2 mi SSW 4.6 mph - N/A Fog Fog
5:58 AM 46.0 °F 44.8 °F 46.0 °F 100% 29.70 in 0.2 mi SSW 3.5 mph - N/A Fog Fog
6:03 AM 46.4 °F 45.2 °F 46.4 °F 100% 29.68 in 0.2 mi SSW 3.5 mph - N/A Fog Fog
6:58 AM 47.7 °F - 47.7 °F 100% 29.73 in 0.2 mi South 3.5 mph - N/A Fog Fog
7:03 AM 48.2 °F - 48.2 °F 100% 29.71 in 0.2 mi SSE 3.5 mph - N/A Fog Fog
7:33 AM 48.2 °F - 48.2 °F 100% 29.72 in 0.5 mi South 4.6 mph - N/A Fog Fog
7:38 AM 48.2 °F - 48.2 °F 100% 29.72 in 0.8 mi South 6.9 mph - N/A   Overcast
7:43 AM 50.0 °F - 50.0 °F 100% 29.72 in 1.2 mi SSE 6.9 mph - N/A   Overcast
7:48 AM 50.0 °F - 50.0 °F 100% 29.72 in 1.0 mi SSE 5.8 mph - N/A   Overcast
7:58 AM 49.1 °F - 49.1 °F 100% 29.74 in 0.8 mi SSE 8.1 mph - N/A   Overcast
8:23 AM 50.0 °F - 50.0 °F 100% 29.70 in 0.8 mi SE 8.1 mph - N/A   Overcast
8:28 AM 50.0 °F - 50.0 °F 100% 29.71 in 0.8 mi SSE 6.9 mph - N/A   Overcast
8:33 AM 50.0 °F - 50.0 °F 100% 29.71 in 0.8 mi SSE 8.1 mph - N/A   Overcast
8:58 AM 49.3 °F - 49.3 °F 100% 29.74 in 0.8 mi SSE 6.9 mph - N/A   Overcast
9:07 AM 50.0 °F - 50.0 °F 100% 29.73 in 0.5 mi SSE 8.1 mph - N/A Fog Fog
9:20 AM 50.0 °F - 50.0 °F 100% 29.72 in 0.8 mi SSE 8.1 mph - N/A   Overcast
9:25 AM 50.0 °F - 50.0 °F 100% 29.72 in 1.0 mi SSE 8.1 mph - N/A   Overcast
9:30 AM 50.0 °F - 50.0 °F 100% 29.72 in 1.0 mi SSE 8.1 mph - N/A   Overcast
9:35 AM 50.0 °F - 50.0 °F 100% 29.72 in 1.2 mi SE 6.9 mph - N/A   Overcast
9:40 AM 50.0 °F - 50.0 °F 100% 29.72 in 1.5 mi SSE 6.9 mph - N/A   Overcast
9:45 AM 50.0 °F - 50.0 °F 100% 29.72 in 2.0 mi SE 8.1 mph - N/A   Overcast
9:55 AM 50.0 °F - 50.0 °F 100% 29.72 in 4.0 mi SSE 8.1 mph - N/A   Overcast
9:59 AM 50.7 °F - 50.7 °F 100% 29.73 in 7.0 mi SSE 10.4 mph - N/A   Overcast
10:55 AM 51.8 °F - 51.8 °F 100% 29.71 in 10.0 mi SSE 15.0 mph - N/A   Overcast
10:58 AM 51.8 °F - 51.8 °F 100% 29.73 in 9.0 mi SSE 13.8 mph - N/A   Overcast
11:03 AM 51.8 °F - 51.8 °F 100% 29.70 in 10.0 mi South 12.7 mph - N/A   Overcast
11:08 AM 51.8 °F - 51.8 °F 100% 29.70 in 10.0 mi South 13.8 mph - N/A   Overcast
11:18 AM 51.8 °F - 51.8 °F 100% 29.69 in 10.0 mi SSE 12.7 mph - N/A   Overcast
11:58 AM 54.3 °F - 54.3 °F 100% 29.69 in 10.0 mi South 11.5 mph - N/A   Overcast
12:23 PM 55.4 °F - 55.4 °F 100% 29.68 in 10.0 mi South 13.8 mph - N/A   Overcast
12:38 PM 53.6 °F - 53.6 °F 100% 29.68 in 10.0 mi South 13.8 mph - N/A   Overcast
12:53 PM 53.6 °F - 53.6 °F 100% 29.68 in 10.0 mi South 10.4 mph - N/A   Overcast
12:58 PM 54.5 °F - 54.5 °F 100% 29.70 in 10.0 mi South 11.5 mph - N/A   Overcast
1:08 PM 55.4 °F - 55.4 °F 100% 29.68 in 10.0 mi South 8.1 mph - N/A   Overcast
1:53 PM 55.4 °F - 55.4 °F 100% 29.67 in 10.0 mi South 10.4 mph - N/A   Overcast
1:58 PM 56.1 °F - 55.4 °F 97% 29.69 in 10.0 mi South 11.5 mph - N/A   Overcast
2:58 PM 56.7 °F - 54.9 °F 94% 29.68 in 10.0 mi SSE 10.4 mph - N/A   Overcast
7:58 PM 47.1 °F - 47.1 °F 100% 29.71 in 1.0 mi SSE 4.6 mph - N/A   Clear
8:03 PM 46.4 °F 44.3 °F 46.4 °F 100% 29.70 in 0.5 mi SE 4.6 mph - N/A Fog Fog
8:08 PM 46.4 °F 45.2 °F 46.4 °F 100% 29.69 in 0.5 mi SE 3.5 mph - N/A Fog Fog
8:13 PM 46.4 °F 44.3 °F 46.4 °F 100% 29.69 in 0.2 mi SE 4.6 mph - N/A Fog Fog
8:38 PM 44.6 °F 42.2 °F 44.6 °F 100% 29.69 in 0.2 mi East 4.6 mph - N/A Fog Fog
8:43 PM 44.6 °F 42.2 °F 44.6 °F 100% 29.69 in 1.0 mi East 4.6 mph - N/A   Clear
8:48 PM 46.4 °F 45.2 °F 46.4 °F 100% 29.68 in 1.8 mi East 3.5 mph - N/A   Clear
8:53 PM 44.6 °F 42.2 °F 44.6 °F 100% 29.68 in 0.8 mi East 4.6 mph - N/A   Clear
8:58 PM 44.4 °F 42.9 °F 44.4 °F 100% 29.70 in 0.5 mi East 3.5 mph - N/A Fog Fog
9:08 PM 44.6 °F - 44.6 °F 100% 29.68 in 0.2 mi East 2.3 mph - N/A Fog Fog
9:23 PM 41.0 °F - 41.0 °F 100% 29.69 in 0.2 mi East 1.2 mph - N/A Fog Fog
9:58 PM 41.7 °F 39.8 °F 41.7 °F 100% 29.70 in 0.2 mi East 3.5 mph - N/A Fog Fog
10:58 PM 40.5 °F - 40.5 °F 100% 29.70 in 0.2 mi Calm Calm - N/A Fog Fog
11:33 PM 39.2 °F - 39.2 °F 100% 29.69 in 0.2 mi Calm Calm - N/A Fog Fog
11:38 PM 39.2 °F - 39.2 °F 100% 29.69 in 0.5 mi Calm Calm - N/A Fog Fog
11:43 PM 39.2 °F - 39.2 °F 100% 29.69 in 0.2 mi NNW 1.2 mph - N/A Fog Fog
11:48 PM 39.2 °F - 39.2 °F 100% 29.69 in 0.5 mi North 1.2 mph - N/A Fog Fog
11:53 PM 41.0 °F - 41.0 °F 100% 29.69 in 0.8 mi NE 1.2 mph - N/A   Mostly Cloudy
11:58 PM 41.4 °F - 41.4 °F 100% 29.71 in 1.5 mi Calm Calm - N/A   Mostly Cloudy